Location: Quebec
(46.8000°N, 71.2500°W)
Time: 01:09:23
(UTC-04:00)

Vanguard 2 Rocket - Visible Passes

Search period start: 18 July 2018 00:00
Search period end: 28 July 2018 00:00
Orbit: 554 x 3327 km, 32.9° (Epoch: 17 July)

Date Brightness Start Highest point End Pass type
(mag) Time Alt. Az. Time Alt. Az. Time Alt. Az.
18 Jul 8.8 03:54:26 12° SSW 04:00:02 28° SSE 04:09:24 10° ESE visible
19 Jul 8.7 02:58:17 16° S 03:00:55 20° SSE 03:07:15 10° ESE visible
20 Jul 9.1 02:02:08 11° SE 02:02:08 11° SE 02:04:12 10° ESE visible
20 Jul 8.7 04:07:57 11° SW 04:13:44 31° SSE 04:23:20 10° ESE visible
21 Jul 8.4 03:11:48 19° S 03:14:30 23° SSE 03:21:33 10° ESE visible
22 Jul 8.7 02:15:42 16° SSE 02:15:42 16° SSE 02:19:42 10° ESE visible
22 Jul 8.6 04:21:38 10° SW 04:27:34 32° S 04:37:03 10° ESE visible
23 Jul 8.2 03:25:25 19° SSW 03:28:16 26° SSE 03:35:33 10° ESE visible
24 Jul 8.4 02:29:22 19° SSE 02:29:22 19° SSE 02:34:11 10° ESE visible
24 Jul 8.6 04:35:47 10° SW 04:41:31 30° S 04:50:32 10° ESE visible
25 Jul 8.1 03:39:10 18° SSW 03:42:10 26° S 03:49:18 10° ESE visible
26 Jul 8.2 02:43:11 21° SSE 02:43:11 21° SSE 02:48:17 10° ESE visible
27 Jul 9.0 01:47:15 10° SE 01:47:15 10° SE 01:47:19 10° SE visible
27 Jul 8.1 03:53:04 17° SW 03:56:09 24° S 04:02:48 10° SE visible
